Location: Sevilla
(37.3933°N, 5.9839°W)
Time: 13:36:39
(UTC+02:00)

S-56A Canister/Altair - Pass Details

Date: 28 June 2024
Orbit: 638 x 2488 km, 38.9° (Epoch: 14 July)

Event Time Altitude Azimuth Distance (km) Brightness Sun altitude
Rises 02:40:22 0° 287° (WNW) 4,793 11.8 -29.3°
Reaches altitude 10° 02:43:11 10° 285° (WNW) 4,025 11.3 -29.2°
Maximum altitude 02:54:18 65° 207° (SSW) 2,363 9.6 -29.0°
Drops below altitude 10° 03:08:53 10° 130° (SE) 5,133 11.4 -28.6°
Sets 03:13:00 0° 128° (SE) 6,148 11.9 -28.4°
